EW6229 Weather Reports


Display with metric or nautical units.
time (UTC)temp
F
wind
direction
speed
MPH
gust
MPH
rain 1hr
in
rain 24hr
in
rain mn
in
humidity
%
barometer
mb
20180719073915 61 90 0.0 2.0 0.00 0.00 0.00 80 1018.6
20180719072915 59 225 2.0 4.0 0.00 0.00 0.00 86 1018.6
20180719071915 57 360 2.0 2.0 0.00 0.00 0.00 88 1018.6
20180719065915 56 360 0.0 0.0 0.00 0.00 0.00 89 1018.6
20180719064915 55 135 2.0 2.0 0.00 0.00 0.00 90 1018.6
20180719062915 54 22 0.0 0.0 0.00 0.00 0.00 90 1018.6
20180719054914 52 157 1.0 2.0 0.00 0.00 0.00 93 1018.6
20180719053914 51 135 0.0 0.0 0.00 0.00 0.00 92 1018.6
20180719045915 50 157 1.0 2.0 0.00 0.00 0.00 91 1018.6
20180719043914 49 157 2.0 2.0 0.00 0.00 0.00 90 1018.6
20180719041914 49 157 2.0 2.0 0.00 0.00 0.00 90 1018.6
20180719034914 49 157 1.0 2.0 0.00 0.00 0.00 90 1018.6
20180719033914 49 157 0.0 0.0 0.00 0.00 0.00 89 1018.6
20180719032914 49 157 2.0 4.0 0.00 0.00 0.00 89 1018.6
20180719030914 49 135 0.0 0.0 0.00 0.00 0.00 89 1018.6
20180719024914 50 135 0.0 0.0 0.00 0.00 0.00 90 1018.6
20180719023914 50 135 1.0 2.0 0.00 0.00 0.00 90 1018.6
20180719021914 50 135 1.0 2.0 0.00 0.00 0.00 90 1018.6
20180719014914 50 157 2.0 4.0 0.00 0.00 0.00 89 1018.6
20180719012914 50 180 0.0 0.0 0.00 0.00 0.00 89 1018.6
20180719004913 50 135 2.0 2.0 0.00 0.00 0.00 88 1018.6
20180719003913 50 180 0.0 0.0 0.00 0.00 0.00 88 1018.6
20180719002913 50 90 0.0 0.0 0.00 0.00 0.00 88 1018.6
20180718234913 50 157 0.0 0.0 0.00 0.00 0.00 87 1018.6
20180718232913 51 135 1.0 2.0 0.00 0.00 0.00 86 1019.6
20180718231913 51 157 0.0 0.0 0.00 0.00 0.00 86 1019.6
20180718230913 51 157 1.0 2.0 0.00 0.00 0.00 86 1019.6
20180718224913 51 135 3.0 4.0 0.00 0.00 0.00 85 1019.6
20180718221912 52 157 0.0 0.0 0.00 0.00 0.00 84 1019.6
20180718215912 52 157 0.0 0.0 0.00 0.00 0.00 84 1018.6
20180718205912 53 157 0.0 0.0 0.00 0.00 0.00 81 1018.6
20180718204912 53 135 1.0 2.0 0.00 0.00 0.00 80 1018.6
20180718203912 53 157 0.0 0.0 0.00 0.00 0.00 79 1018.6
20180718202912 53 157 0.0 0.0 0.00 0.00 0.00 79 1018.6
20180718200912 54 157 2.0 2.0 0.00 0.00 0.00 78 1018.6
20180718195912 55 135 3.0 4.0 0.00 0.00 0.00 77 1018.6
20180718193912 56 135 1.0 4.0 0.00 0.00 0.00 75 1018.6
20180718185912 58 135 0.0 0.0 0.00 0.00 0.00 70 1018.6
20180718184912 59 135 1.0 2.0 0.00 0.00 0.00 69 1018.6
20180718183912 60 157 0.0 0.0 0.00 0.00 0.00 68 1018.6
20180718180912 63 135 2.0 2.0 0.00 0.00 0.00 63 1017.6
20180718175912 64 135 1.0 2.0 0.00 0.00 0.00 61 1017.6
20180718174911 64 67 1.0 2.0 0.00 0.00 0.00 59 1017.6
20180718173911 65 247 2.0 2.0 0.00 0.00 0.00 57 1017.6
20180718172911 66 270 1.0 4.0 0.00 0.00 0.00 52 1017.6
20180718170911 66 270 3.0 6.0 0.00 0.00 0.00 55 1017.6
20180718165911 66 247 4.0 6.0 0.00 0.00 0.00 54 1017.6
20180718164911 67 225 2.0 4.0 0.00 0.00 0.00 54 1017.6
20180718162911 68 157 3.0 4.0 0.00 0.00 0.00 50 1017.6
20180718161911 68 225 1.0 2.0 0.00 0.00 0.00 51 1017.6
20180718160911 68 202 5.0 6.0 0.00 0.00 0.00 51 1017.6
20180718155911 68 247 2.0 4.0 0.00 0.00 0.00 52 1017.6
20180718153911 68 202 4.0 6.0 0.00 0.00 0.00 53 1017.6
20180718152911 68 270 2.0 4.0 0.00 0.00 0.00 51 1018.6
20180718145911 69 180 2.0 6.0 0.00 0.00 0.00 51 1018.6
20180718142911 69 247 3.0 6.0 0.00 0.00 0.00 49 1018.6
20180718141910 71 247 5.0 6.0 0.00 0.00 0.00 47 1018.6
20180718140910 71 202 3.0 4.0 0.00 0.00 0.00 49 1018.6
20180718131910 68 270 2.0 4.0 0.00 0.00 0.00 53 1018.6
20180718125910 70 45 2.0 6.0 0.00 0.00 0.00 48 1018.6
20180718124910 70 225 7.0 10.0 0.00 0.00 0.00 52 1018.6
20180718120910 69 247 4.0 8.0 0.00 0.00 0.00 51 1018.6
20180718115910 67 360 4.0 12.0 0.00 0.00 0.00 53 1018.6
20180718114910 68 270 3.0 6.0 0.00 0.00 0.00 52 1018.6
20180718112910 68 180 11.0 14.0 0.00 0.00 0.00 52 1018.6
20180718105910 66 247 5.0 10.0 0.00 0.00 0.00 57 1018.6
20180718104910 67 270 3.0 6.0 0.00 0.00 0.00 54 1019.6
20180718102913 68 247 6.0 10.0 0.00 0.00 0.00 54 1018.6
20180718101913 68 360 5.0 8.0 0.00 0.00 0.00 53 1019.6
20180718100913 67 22 3.0 4.0 0.00 0.00 0.00 55 1019.6
20180718083912 65 180 4.0 4.0 0.00 0.00 0.00 60 1019.6
20180718082912 64 225 3.0 6.0 0.00 0.00 0.00 59 1018.6
20180718081912 64 225 5.0 6.0 0.00 0.00 0.00 63 1018.6
20180718080912 63 247 5.0 10.0 0.00 0.00 0.00 64 1018.6
20180718075913 62 292 6.0 10.0 0.00 0.00 0.00 65 1019.6